Miscellaneous Local Product
Issued by NWS Hastings, NE

Home | Current Version | Previous Version | Text Only | Print | Product List | Glossary On
Versions: 1 2 3 4 5 6 7 8 9 10 11 12 13 14 15 16 17 18 19 20 21 22 23 24 25 26 27 28 29 30 31 32 33 34 35 36 37 38 39 40 41 42 43 44 45 46 47 48 49 50
682
AXUS43 KGID 091402
MISGRI

GID CWA HOURLY WEATHER ROUNDUP
NATIONAL WEATHER SERVICE HASTINGS NE
800 AM CST FRI DEC 09 2016

NOTE: "FAIR" INDICATES FEW OR NO CLOUDS BELOW 12,000 FEET WITH NO
SIGNIFICANT WEATHER AND/OR OBSTRUCTIONS TO VISIBILITY.

...SOUTH CENTRAL NEBRASKA...

CITY           SKY/WX    TMP DP  RH WIND       PRES   REMARKS
GRAND ISLAND   CLOUDY    11   6  81 SE8       30.51R WCI  -1
HASTINGS       CLOUDY    13   6  74 SE9       30.50F WCI   1
KEARNEY        CLOUDY    12   7  79 SE6       30.46S WCI   3
ORD            NOT AVBL
YORK           CLOUDY    10   7  85 SE7       30.55R WCI   0
AURORA         CLOUDY    11   6  79 SE9       30.53R WCI  -2
LEXINGTON      CLOUDY    15   8  73 S10       30.40F WCI   2
HOLDREGE       CLOUDY    15   7  71 S10       30.44R WCI   2
HEBRON         CLOUDY    14   8  79 E3        30.56S

...NEBRASKA PANHANDLE...

CITY           SKY/WX    TMP DP  RH WIND       PRES   REMARKS
CHADRON        CLOUDY     5  -1  76 N7        30.25R WCI  -7
ALLIANCE       CLOUDY    10   4  76 SE8       30.14R WCI  -2
SCOTTSBLUFF    CLOUDY    17   8  67 E10       30.11R WCI   5
SIDNEY         CLOUDY    12   5  73 S12       30.13R WCI  -2

...WESTERN AND NORTH CENTRAL NEBRASKA...

CITY           SKY/WX    TMP DP  RH WIND       PRES   REMARKS
VALENTINE      CLOUDY     6   1  80 E9        30.38S WCI  -8
AINSWORTH      CLOUDY     8   4  82 SE5       30.39S WCI   0
ONEILL         CLOUDY     7   4  86 E3        30.49S
BROKEN BOW     CLOUDY     9   4  80 SE10      30.39F WCI  -5
IMPERIAL       CLOUDY    11   4  73 SE8       30.26S WCI  -1
NORTH PLATTE   CLOUDY    14   4  64 SE12      30.33F WCI   0
MCCOOK         CLOUDY    15   8  73 SE13      30.36F WCI   1

...EASTERN NEBRASKA...

CITY           SKY/WX    TMP DP  RH WIND       PRES   REMARKS
NORFOLK        CLOUDY     5   1  83 E3        30.54S
SO SIOUX CITY  CLOUDY     5   0  79 CALM      30.62R
TEKAMAH        CLOUDY     7   2  80 CALM      30.63R
COLUMBUS       CLOUDY     7   1  78 CALM      30.57R
ALBION         CLOUDY     6   2  82 SE6       30.51F WCI  -4
OMAHA EPPLEY   MOCLDY     9   3  77 CALM      30.62F
OFFUTT AFB     CLOUDY     9   6  89 CALM      30.61F
MILLARD        PTCLDY    12   6  77 CALM      30.62S
LINCOLN        CLOUDY     9   3  77 CALM      30.62R
NEBRASKA CITY  CLOUDY    10   3  74 CALM      30.61R
BEATRICE       CLOUDY    10   6  85 CALM      30.59S
FALLS CITY     CLOUDY    10   6  84 CALM      30.63R

...NORTHERN KANSAS...

CITY           SKY/WX    TMP DP  RH WIND       PRES   REMARKS
GOODLAND       CLOUDY     9   5  84 S12       30.23F WCI  -6
HILL CITY      CLOUDY    19   9  65 S10       30.43F WCI   7
NORTON         CLOUDY    16   9  73 E8        30.41F WCI   5
PHILLIPSBURG   CLOUDY    16  10  79 E6        30.49S WCI   7
SMITH CENTER   CLOUDY    14  10  85 SE9       30.51F WCI   2
BELOIT         CLOUDY    16  10  79 SE5       30.56S WCI   9
HAYS           CLOUDY    19  11  70 SE14      30.47F WCI   6
RUSSELL        CLOUDY    18  11  74 SE12      30.50R WCI   5
CONCORDIA      CLOUDY    17  13  84 SE5       30.57R WCI  10
SALINA         CLOUDY    20  12  71 SE9       30.59S WCI   9
TOPEKA         CLOUDY    16  10  77 CALM      30.65S



USA.gov is the U.S. government's official web portal to all federal, state and local government web resources and services.